GLOBALSTAR M015 [-]

Last updated on July 6, 2021, 3:36 p.m. UTC

1 25308U 98023C   21186.86212081 -.00000045  00000-0  66190-3 0  9991
2 25308  51.9799 241.0196 0012187  33.0283 138.7035 11.48843827 28307
UTC
Height (km)
Latitude
Longitude
Inclination
Orbital Period
UTC large
Height (km)
Speed (km/s)
/
Latitude / Longitude
Inclination (degrees)
Orbital Period (minutes)
Azimuth
Elevation
Range (km)
Doppler Factor
iOS Compass Heading
iOS Angle